Time,TemperatureF,DewpointF,PressureIn,WindDirection,WindDirectionDegrees,WindSpeedMPH,WindSpeedGustMPH,Humidity,HourlyPrecipIn,Conditions,Clouds,dailyrainin,SoftwareType,DateUTC
2013-07-02 00:06:00,68.7,59.0,29.29,SSE,151,0.0,0.0,71,0.24,,,0.00,VWS V14.01,2013-07-02 04:06:00,
2013-07-02 00:21:00,68.5,58.8,29.29,SSE,151,0.0,0.0,71,0.12,,,0.00,VWS V14.01,2013-07-02 04:21:00,
2013-07-02 00:36:00,68.4,58.6,29.29,SSE,151,0.0,0.0,71,0.04,,,0.00,VWS V14.01,2013-07-02 04:36:00,
2013-07-02 00:51:00,68.2,58.4,29.29,SSE,151,0.0,0.0,71,0.00,,,0.00,VWS V14.01,2013-07-02 04:51:00,
2013-07-02 01:06:00,68.0,58.3,29.29,SSE,151,0.0,0.0,71,0.00,,,0.00,VWS V14.01,2013-07-02 05:06:00,
2013-07-02 01:21:00,68.0,58.7,29.29,SSE,151,0.0,0.0,72,0.00,,,0.00,VWS V14.01,2013-07-02 05:21:00,
2013-07-02 01:36:00,68.0,58.7,29.26,SSE,151,0.0,0.0,72,0.00,,,0.00,VWS V14.01,2013-07-02 05:36:00,
2013-07-02 01:51:00,67.8,58.5,29.26,SSE,151,0.0,0.0,72,0.00,,,0.00,VWS V14.01,2013-07-02 05:51:00,
2013-07-02 02:06:00,67.8,58.5,29.26,SSE,151,0.0,0.0,72,0.00,,,0.00,VWS V14.01,2013-07-02 06:06:00,
2013-07-02 02:21:00,67.8,58.9,29.26,SSE,151,0.0,0.0,73,0.00,,,0.00,VWS V14.01,2013-07-02 06:21:00,
2013-07-02 02:36:00,67.8,58.9,29.26,SSE,151,0.0,0.0,73,0.00,,,0.00,VWS V14.01,2013-07-02 06:36:00,
2013-07-02 02:51:00,68.0,59.0,29.26,SSE,151,0.0,0.0,73,0.00,,,0.00,VWS V14.01,2013-07-02 06:51:00,
2013-07-02 03:06:00,68.0,59.0,29.26,SSE,151,0.0,0.0,73,0.00,,,0.00,VWS V14.01,2013-07-02 07:06:00,
2013-07-02 03:21:00,68.2,59.6,29.26,SSE,151,0.0,0.0,74,0.00,,,0.00,VWS V14.01,2013-07-02 07:21:00,
2013-07-02 03:36:00,68.4,59.8,29.26,SSE,151,0.0,0.0,74,0.00,,,0.00,VWS V14.01,2013-07-02 07:36:00,
2013-07-02 03:51:00,68.0,59.4,29.26,SSE,151,0.0,0.0,74,0.00,,,0.00,VWS V14.01,2013-07-02 07:51:00,
2013-07-02 04:06:00,67.8,59.6,29.26,SSE,151,0.0,0.0,75,0.00,,,0.00,VWS V14.01,2013-07-02 08:06:00,
2013-07-02 04:21:00,67.8,59.6,29.26,SSE,151,0.0,0.0,75,0.00,,,0.00,VWS V14.01,2013-07-02 08:21:00,
2013-07-02 04:36:00,67.8,59.6,29.26,SSE,151,0.0,0.0,75,0.00,,,0.00,VWS V14.01,2013-07-02 08:36:00,
2013-07-02 04:51:00,68.0,59.8,29.26,SSE,151,0.0,0.0,75,0.00,,,0.00,VWS V14.01,2013-07-02 08:51:00,
2013-07-02 05:06:00,67.8,59.6,29.26,SSE,151,0.0,0.0,75,0.00,,,0.00,VWS V14.01,2013-07-02 09:06:00,
2013-07-02 05:21:00,67.6,59.8,29.29,SSE,151,0.0,0.0,76,0.00,,,0.00,VWS V14.01,2013-07-02 09:21:00,
2013-07-02 05:36:00,67.5,59.6,29.29,SSE,151,0.0,0.0,76,0.00,,,0.00,VWS V14.01,2013-07-02 09:36:00,
2013-07-02 05:51:00,67.5,59.6,29.29,SSE,151,0.0,0.0,76,0.00,,,0.00,VWS V14.01,2013-07-02 09:51:00,
2013-07-02 06:06:00,67.6,60.2,29.29,SSE,151,0.0,0.0,77,0.00,,,0.00,VWS V14.01,2013-07-02 10:06:00,
2013-07-02 06:21:00,67.8,60.3,29.29,SSE,151,0.0,0.0,77,0.00,,,0.00,VWS V14.01,2013-07-02 10:21:00,
2013-07-02 06:36:00,67.8,60.3,29.32,SSE,151,0.0,0.0,77,0.00,,,0.00,VWS V14.01,2013-07-02 10:36:00,
2013-07-02 06:51:00,67.8,60.3,29.32,SSE,151,0.0,0.0,77,0.00,,,0.00,VWS V14.01,2013-07-02 10:51:00,
2013-07-02 07:06:00,68.0,60.5,29.32,SSE,151,0.0,0.0,77,0.00,,,0.00,VWS V14.01,2013-07-02 11:06:00,
2013-07-02 07:21:00,68.2,60.7,29.32,SSE,151,0.0,0.0,77,0.00,,,0.00,VWS V14.01,2013-07-02 11:21:00,
2013-07-02 07:36:00,68.0,60.5,29.32,SSE,151,0.0,0.0,77,0.00,,,0.00,VWS V14.01,2013-07-02 11:36:00,
2013-07-02 07:51:00,68.4,61.2,29.32,SSE,151,0.0,0.0,78,0.00,,,0.00,VWS V14.01,2013-07-02 11:51:00,
2013-07-02 08:06:00,68.9,61.8,29.35,SSE,151,0.0,0.0,78,0.00,,,0.00,VWS V14.01,2013-07-02 12:06:00,
2013-07-02 08:21:00,68.9,61.8,29.35,SSE,151,0.0,0.0,78,0.00,,,0.00,VWS V14.01,2013-07-02 12:21:00,
2013-07-02 08:36:00,69.4,62.3,29.35,SSE,151,0.0,0.0,78,0.00,,,0.00,VWS V14.01,2013-07-02 12:36:00,
2013-07-02 08:51:00,69.8,62.6,29.35,SSE,151,0.0,0.0,78,0.00,,,0.00,VWS V14.01,2013-07-02 12:51:00,
2013-07-02 09:06:00,70.3,63.2,29.35,SSE,151,0.0,0.0,78,0.00,,,0.00,VWS V14.01,2013-07-02 13:06:00,
2013-07-02 09:21:00,70.9,64.1,29.35,SSE,151,0.0,0.0,79,0.00,,,0.00,VWS V14.01,2013-07-02 13:21:00,
2013-07-02 09:36:00,71.1,63.9,29.35,SSE,151,0.0,0.0,78,0.00,,,0.00,VWS V14.01,2013-07-02 13:36:00,
2013-07-02 09:51:00,71.8,64.6,29.35,SSE,151,0.0,0.0,78,0.00,,,0.00,VWS V14.01,2013-07-02 13:51:00,
2013-07-02 10:06:00,72.0,64.4,29.38,SSE,151,0.0,0.0,77,0.00,,,0.00,VWS V14.01,2013-07-02 14:06:00,
2013-07-02 10:21:00,72.5,64.9,29.38,ESE,120,0.0,0.0,77,0.00,,,0.00,VWS V14.01,2013-07-02 14:21:00,
2013-07-02 10:36:00,73.6,65.6,29.38,East,88,0.0,0.0,76,0.00,,,0.00,VWS V14.01,2013-07-02 14:36:00,
2013-07-02 10:51:00,75.4,64.9,29.38,ESE,106,0.0,0.0,70,0.00,,,0.00,VWS V14.01,2013-07-02 14:51:00,
2013-07-02 11:06:00,77.4,61.0,29.38,ESE,116,0.0,0.0,57,0.00,,,0.00,VWS V14.01,2013-07-02 15:06:00,
2013-07-02 11:21:00,78.8,49.6,29.38,ENE,75,0.0,0.0,36,0.00,,,0.00,VWS V14.01,2013-07-02 15:21:00,
2013-07-02 11:36:00,78.3,46.0,29.38,ENE,75,0.0,0.0,32,0.00,,,0.00,VWS V14.01,2013-07-02 15:36:00,
2013-07-02 11:51:00,78.1,45.8,29.38,ENE,75,0.0,0.0,32,0.00,,,0.00,VWS V14.01,2013-07-02 15:51:00,
2013-07-02 12:06:00,78.4,46.2,29.38,ENE,75,0.0,0.0,32,0.00,,,0.00,VWS V14.01,2013-07-02 16:06:00,
2013-07-02 12:21:00,76.3,45.1,29.38,North,0,0.0,0.0,33,0.00,,,0.00,VWS V14.01,2013-07-02 16:21:00,
2013-07-02 12:36:00,75.2,46.4,29.38,North,357,0.0,0.0,36,0.00,,,0.00,VWS V14.01,2013-07-02 16:36:00,
2013-07-02 12:51:00,74.8,48.2,29.38,WSW,239,0.0,0.0,39,0.00,,,0.00,VWS V14.01,2013-07-02 16:51:00,
2013-07-02 13:06:00,74.3,49.1,29.38,WNW,294,0.0,0.0,41,0.00,,,0.00,VWS V14.01,2013-07-02 17:06:00,
2013-07-02 13:21:00,75.6,50.9,29.38,WNW,294,0.0,0.0,42,0.04,,,0.04,VWS V14.01,2013-07-02 17:21:00,
2013-07-02 13:36:00,74.8,52.1,29.38,South,191,0.0,0.0,45,0.04,,,0.04,VWS V14.01,2013-07-02 17:36:00,
2013-07-02 13:51:00,75.9,55.4,29.38,East,96,0.0,0.0,49,0.04,,,0.04,VWS V14.01,2013-07-02 17:51:00,
2013-07-02 14:06:00,78.1,56.8,29.38,North,0,0.0,0.0,48,0.04,,,0.04,VWS V14.01,2013-07-02 18:06:00,
2013-07-02 14:21:00,79.0,48.2,29.38,NNW,343,0.0,0.0,34,0.04,,,0.04,VWS V14.01,2013-07-02 18:21:00,
2013-07-02 14:36:00,81.0,41.9,29.38,North,7,0.0,0.0,25,0.00,,,0.04,VWS V14.01,2013-07-02 18:36:00,
2013-07-02 14:51:00,82.0,40.6,29.35,WNW,297,0.0,0.0,23,0.00,,,0.04,VWS V14.01,2013-07-02 18:51:00,
2013-07-02 15:06:00,82.0,39.5,29.35,NNW,341,0.0,0.0,22,0.00,,,0.04,VWS V14.01,2013-07-02 19:06:00,
2013-07-02 15:21:00,83.8,38.5,29.35,NNW,344,0.0,0.0,20,0.00,,,0.04,VWS V14.01,2013-07-02 19:21:00,
2013-07-02 15:36:00,85.5,39.9,29.35,North,349,0.0,0.0,20,0.00,,,0.04,VWS V14.01,2013-07-02 19:36:00,
2013-07-02 15:51:00,86.0,37.6,29.32,WNW,303,0.0,0.0,18,0.00,,,0.04,VWS V14.01,2013-07-02 19:51:00,
2013-07-02 16:06:00,85.1,38.2,29.35,South,189,0.0,0.0,19,0.00,,,0.04,VWS V14.01,2013-07-02 20:06:00,
2013-07-02 16:21:00,83.8,37.2,29.32,South,187,0.0,0.0,19,0.00,,,0.04,VWS V14.01,2013-07-02 20:21:00,
2013-07-02 16:36:00,83.3,36.8,29.35,SW,235,0.0,4.9,19,0.00,,,0.04,VWS V14.01,2013-07-02 20:36:00,
2013-07-02 16:51:00,82.6,36.2,29.35,NW,305,0.0,0.0,19,0.00,,,0.04,VWS V14.01,2013-07-02 20:51:00,
2013-07-02 17:06:00,82.9,36.5,29.35,NE,38,0.0,0.0,19,0.00,,,0.04,VWS V14.01,2013-07-02 21:06:00,
2013-07-02 17:21:00,83.8,37.2,29.35,SSW,193,0.0,5.4,19,0.00,,,0.04,VWS V14.01,2013-07-02 21:21:00,
2013-07-02 17:36:00,83.8,37.2,29.35,SSE,157,0.0,4.0,19,0.00,,,0.04,VWS V14.01,2013-07-02 21:36:00,
2013-07-02 17:51:00,82.0,35.8,29.35,West,275,0.0,4.5,19,0.00,,,0.04,VWS V14.01,2013-07-02 21:51:00,
2013-07-02 18:06:00,81.1,36.3,29.35,SSE,157,0.0,0.0,20,0.00,,,0.04,VWS V14.01,2013-07-02 22:06:00,
2013-07-02 18:21:00,79.7,35.1,29.38,NNW,328,0.0,0.0,20,0.00,,,0.04,VWS V14.01,2013-07-02 22:21:00,
2013-07-02 18:36:00,76.8,37.3,29.38,WNW,300,3.6,4.0,24,0.00,,,0.04,VWS V14.01,2013-07-02 22:36:00,
2013-07-02 18:51:00,74.7,42.0,29.38,WNW,293,0.0,4.0,31,0.00,,,0.04,VWS V14.01,2013-07-02 22:51:00,
2013-07-02 19:06:00,74.1,43.2,29.38,WNW,302,0.0,0.0,33,0.00,,,0.04,VWS V14.01,2013-07-02 23:06:00,
2013-07-02 19:21:00,74.1,44.0,29.38,WNW,302,0.0,0.0,34,0.00,,,0.04,VWS V14.01,2013-07-02 23:21:00,
2013-07-02 19:36:00,73.9,44.6,29.38,WNW,287,0.0,0.0,35,0.00,,,0.04,VWS V14.01,2013-07-02 23:36:00,
2013-07-02 19:51:00,73.8,44.4,29.38,WNW,287,0.0,0.0,35,0.00,,,0.04,VWS V14.01,2013-07-02 23:51:00,
2013-07-02 20:06:00,73.8,45.2,29.38,WNW,287,0.0,0.0,36,0.00,,,0.04,VWS V14.01,2013-07-03 00:06:00,
2013-07-02 20:21:00,73.9,46.8,29.38,WNW,287,0.0,0.0,38,0.00,,,0.04,VWS V14.01,2013-07-03 00:21:00,
2013-07-02 20:36:00,73.9,46.0,29.38,WNW,287,0.0,0.0,37,0.00,,,0.04,VWS V14.01,2013-07-03 00:36:00,
2013-07-02 20:51:00,73.4,45.6,29.38,WNW,287,0.0,0.0,37,0.00,,,0.04,VWS V14.01,2013-07-03 00:51:00,
2013-07-02 21:06:00,72.9,46.5,29.38,WNW,287,0.0,0.0,39,0.00,,,0.04,VWS V14.01,2013-07-03 01:06:00,
2013-07-02 21:21:00,72.9,47.2,29.38,West,259,0.0,0.0,40,0.00,,,0.04,VWS V14.01,2013-07-03 01:21:00,
2013-07-02 21:36:00,72.5,47.5,29.38,West,259,0.0,0.0,41,0.00,,,0.04,VWS V14.01,2013-07-03 01:36:00,
2013-07-02 21:51:00,72.1,47.8,29.41,West,259,0.0,0.0,42,0.00,,,0.04,VWS V14.01,2013-07-03 01:51:00,
2013-07-02 22:06:00,71.8,47.5,29.41,West,263,0.0,0.0,42,0.00,,,0.04,VWS V14.01,2013-07-03 02:06:00,
2013-07-02 23:21:00,70.9,48.5,29.41,West,277,0.0,0.0,45,0.00,,,0.04,VWS V14.01,2013-07-03 03:21:00,
2013-07-02 23:36:00,70.5,48.2,29.41,West,277,0.0,0.0,45,0.00,,,0.04,VWS V14.01,2013-07-03 03:36:00,
2013-07-02 23:51:00,70.2,48.4,29.41,West,277,0.0,0.0,46,0.00,,,0.00,VWS V14.01,2013-07-03 03:51:00,